Sedona, AZ

6:30 AM MST on August 17, 2019 (GMT -0700)
Sedona

Weather History for KSEZ - May, 2019

Change the Weather History Date:

Wednesday, May 22, 2019

  Actual Average Record
Temperature  
Mean Temperature 52 °F -  
Max Temperature 59 °F 85 °F 95 °F (2012)
Min Temperature 46 °F 48 °F 46 °F (2019)
Degree Days  
Heating Degree Days 12    
Growing Degree Days 2 (Base 50)    
Moisture  
Dew Point 33 °F    
Average Humidity 48    
Maximum Humidity 66    
Minimum Humidity 33    
Precipitation  
Precipitation 0.00 in - - ()
Sea Level Pressure  
Sea Level Pressure 29.70 in    
Wind  
Wind Speed 14 mph (SSE)    
Max Wind Speed 26 mph    
Max Gust Speed 36 mph    
Visibility 10 miles    
Events      
Averages and records for this station are not official NWS values.
T = Trace of Precipitation, MM = Missing Value Source: NWS Daily Summary

Daily Weather History Graph

Daily Weather History Graph

Search for Another Location

Airport or City:

Astronomy

May. 22, 2019 Rise Set
Actual Time 5:19 AM MST 7:28 PM MST
Civil Twilight 4:50 AM MST 7:57 PM MST
Nautical Twilight 4:16 AM MST 8:32 PM MST
Astronomical Twilight 3:38 AM MST 9:09 PM MST
Moon 11:14 PM MST (5/22) 8:32 AM MST (5/22)
Length of Visible Light 15h 06m
Length of Day
14h 09m
Waning Gibbous, 84% of the Moon is Illuminated
May 22
Waning Gibbous
May 26
Last Quarter
Jun 3
New
Jun 9
First Quarter
Jun 17
Full

Hourly Weather History & Observations

Time (MST) Temp. Windchill Dew Point Humidity Pressure Visibility Wind Dir Wind Speed Gust Speed Precip Events Conditions
12:15 AM 51.8 °F - 30.2 °F 44% 29.70 in 10.0 mi South 18.4 mph 23.0 mph N/A   Overcast
12:35 AM 51.8 °F - 30.2 °F 44% 29.70 in 10.0 mi SSE 10.4 mph 16.1 mph N/A   Overcast
12:55 AM 51.8 °F - 32.0 °F 47% 29.69 in 10.0 mi South 13.8 mph 24.2 mph N/A   Overcast
1:15 AM 51.8 °F - 32.0 °F 47% 29.68 in 10.0 mi SSE 15.0 mph 26.5 mph N/A   Overcast
1:35 AM 50.0 °F - 32.0 °F 50% 29.69 in 10.0 mi SSE 8.1 mph 25.3 mph N/A   Overcast
1:55 AM 50.0 °F - 32.0 °F 50% 29.68 in 10.0 mi SSE 10.4 mph 19.6 mph N/A   Overcast
2:15 AM 50.0 °F - 32.0 °F 50% 29.68 in 10.0 mi SSE 12.7 mph 21.9 mph N/A   Overcast
2:35 AM 50.0 °F - 32.0 °F 50% 29.67 in 10.0 mi SSE 16.1 mph 26.5 mph N/A   Overcast
2:55 AM 50.0 °F - 32.0 °F 50% 29.67 in 10.0 mi SSE 20.7 mph 25.3 mph N/A   Overcast
3:15 AM 50.0 °F - 32.0 °F 50% 29.67 in 10.0 mi SSE 13.8 mph 20.7 mph N/A   Overcast
3:35 AM 48.2 °F - 32.0 °F 54% 29.66 in 10.0 mi South 10.4 mph 17.3 mph N/A   Overcast
3:55 AM 48.2 °F - 32.0 °F 54% 29.66 in 10.0 mi South 12.7 mph 16.1 mph N/A   Overcast
4:15 AM 48.2 °F - 32.0 °F 54% 29.66 in 10.0 mi South 9.2 mph - N/A   Overcast
4:35 AM 46.4 °F 41.1 °F 32.0 °F 57% 29.66 in 10.0 mi South 11.5 mph 17.3 mph N/A   Mostly Cloudy
4:55 AM 46.4 °F 41.9 °F 32.0 °F 57% 29.66 in 10.0 mi South 9.2 mph 17.3 mph N/A   Mostly Cloudy
5:15 AM 46.4 °F 40.1 °F 33.8 °F 62% 29.66 in 10.0 mi South 15.0 mph 19.6 mph N/A   Overcast
5:35 AM 46.4 °F 41.9 °F 33.8 °F 62% 29.66 in 10.0 mi South 9.2 mph 17.3 mph N/A   Overcast
5:55 AM 46.4 °F 42.4 °F 33.8 °F 62% 29.67 in 10.0 mi South 8.1 mph - N/A   Overcast
6:15 AM 46.4 °F 40.7 °F 33.8 °F 62% 29.67 in 10.0 mi SSW 12.7 mph 18.4 mph N/A   Overcast
6:35 AM 46.4 °F 41.9 °F 33.8 °F 62% 29.69 in 10.0 mi SSW 9.2 mph - N/A   Overcast
6:55 AM 46.4 °F 41.5 °F 35.6 °F 66% 29.69 in 10.0 mi SSW 10.4 mph - N/A   Overcast
7:15 AM 46.4 °F 41.9 °F 35.6 °F 66% 29.69 in 10.0 mi SSW 9.2 mph - N/A   Mostly Cloudy
7:35 AM 46.4 °F 41.9 °F 33.8 °F 62% 29.70 in 10.0 mi SSW 9.2 mph - N/A   Mostly Cloudy
7:55 AM 50.0 °F - 35.6 °F 58% 29.70 in 10.0 mi South 12.7 mph 18.4 mph N/A   Overcast
8:15 AM 50.0 °F - 35.6 °F 58% 29.69 in 10.0 mi SSE 15.0 mph 24.2 mph N/A   Overcast
8:35 AM 50.0 °F - 35.6 °F 58% 29.70 in 10.0 mi South 10.4 mph 21.9 mph N/A   Overcast
8:55 AM 51.8 °F - 35.6 °F 54% 29.70 in 10.0 mi SE 9.2 mph 19.6 mph N/A   Overcast
9:15 AM 51.8 °F - 35.6 °F 54% 29.70 in 10.0 mi SSE 15.0 mph 25.3 mph N/A   Overcast
9:35 AM 50.0 °F - 33.8 °F 54% 29.70 in 10.0 mi SE 19.6 mph 28.8 mph N/A   Overcast
9:55 AM 51.8 °F - 33.8 °F 50% 29.70 in 10.0 mi South 18.4 mph 28.8 mph N/A   Overcast
10:15 AM 55.4 °F - 35.6 °F 47% 29.70 in 10.0 mi SSE 17.3 mph 27.6 mph N/A   Mostly Cloudy
10:35 AM 55.4 °F - 35.6 °F 47% 29.70 in 10.0 mi South 18.4 mph 27.6 mph N/A   Scattered Clouds
10:55 AM 55.4 °F - 35.6 °F 47% 29.70 in 10.0 mi SSE 20.7 mph 28.8 mph N/A   Mostly Cloudy
11:15 AM 57.2 °F - 35.6 °F 44% 29.71 in 10.0 mi SSE 18.4 mph 29.9 mph N/A   Mostly Cloudy
11:35 AM 59.0 °F - 35.6 °F 42% 29.70 in 10.0 mi SE 19.6 mph 32.2 mph N/A   Mostly Cloudy
11:55 AM 59.0 °F - 33.8 °F 39% 29.71 in 10.0 mi SSE 20.7 mph 35.7 mph N/A   Scattered Clouds
12:15 PM 57.2 °F - 33.8 °F 41% 29.70 in 10.0 mi SSE 26.5 mph 34.5 mph N/A   Scattered Clouds
12:35 PM 53.6 °F - 33.8 °F 47% 29.72 in 10.0 mi SSE 19.6 mph 24.2 mph N/A   Mostly Cloudy
12:55 PM 53.6 °F - 33.8 °F 47% 29.73 in 10.0 mi South 13.8 mph 25.3 mph N/A   Overcast
1:15 PM 55.4 °F - 33.8 °F 44% 29.72 in 10.0 mi SSE 18.4 mph 24.2 mph N/A   Overcast
1:35 PM 55.4 °F - 33.8 °F 44% 29.73 in 10.0 mi SSE 13.8 mph 31.1 mph N/A   Overcast
1:55 PM 57.2 °F - 32.0 °F 38% 29.72 in 10.0 mi SSE 15.0 mph 27.6 mph N/A   Mostly Cloudy
2:15 PM 55.4 °F - 32.0 °F 41% 29.72 in 10.0 mi SSE 16.1 mph 27.6 mph N/A   Overcast
2:35 PM 59.0 °F - 32.0 °F 36% 29.72 in 10.0 mi South 17.3 mph 23.0 mph N/A   Mostly Cloudy
2:55 PM 59.0 °F - 30.2 °F 34% 29.73 in 10.0 mi South 18.4 mph 27.6 mph N/A   Mostly Cloudy
3:15 PM 59.0 °F - 30.2 °F 34% 29.72 in 10.0 mi South 12.7 mph 25.3 mph N/A   Mostly Cloudy
3:35 PM 59.0 °F - 30.2 °F 34% 29.72 in 10.0 mi SSE 15.0 mph 26.5 mph N/A   Mostly Cloudy
3:55 PM 57.2 °F - 28.4 °F 33% 29.72 in 10.0 mi SSE 20.7 mph 29.9 mph N/A   Overcast
4:15 PM 55.4 °F - 30.2 °F 38% 29.72 in 10.0 mi SSE 12.7 mph 26.5 mph N/A   Overcast
4:35 PM 55.4 °F - 28.4 °F 36% 29.73 in 10.0 mi SSE 16.1 mph 27.6 mph N/A   Mostly Cloudy
4:55 PM 57.2 °F - 28.4 °F 33% 29.72 in 10.0 mi SSE 16.1 mph 26.5 mph N/A   Mostly Cloudy
5:15 PM 55.4 °F - 28.4 °F 36% 29.73 in 10.0 mi South 11.5 mph 20.7 mph N/A   Overcast
5:35 PM 59.0 °F - 30.2 °F 34% 29.73 in 10.0 mi SSE 13.8 mph 21.9 mph N/A   Overcast
5:55 PM 55.4 °F - 30.2 °F 38% 29.73 in 10.0 mi South 18.4 mph 28.8 mph N/A   Overcast